Regional Weather Roundup
Issued by NWS

Home | Current Version | Previous Version | Graphics & Text | Print | Product List | Glossary Off
Versions: 1 2 3 4 5 6 7 8 9 10 11 12 13 14 15 16 17 18 19 20 21 22 23 24 25 26 27 28 29 30 31 32 33 34 35 36 37 38 39 40 41 42 43 44 45 46 47 48 49 50

000
ASUS45 KBOU 031610
RWRCO

WEATHER ROUNDUP FOR COLORADO
NATIONAL WEATHER SERVICE DENVER/BOULDER CO
1000 AM MDT FRI JUL 03 2015

NOTE: "FAIR" INDICATES FEW OR NO CLOUDS BELOW 12000 FEET WITH NO
SIGNIFICANT WEATHER AND/OR OBSTRUCTIONS TO VISIBILITY.

COZ001>005-013-030-031-031700-
...NORTHWEST COLORADO...

CITY           SKY/WX    TMP DP  RH WIND       PRES   REMARKS
CRAIG          SUNNY     76  49  38 N5        30.20F
HAYDEN         SUNNY     72  45  37 E7        30.22F
MEEKER         SUNNY     74  48  39 CALM      30.21F
MOUNT WERNER   NOT AVBL
STEAMBOAT SPGS SUNNY     69  45  41 CALM      30.24F
WALDEN         SUNNY     61  46  59 CALM      30.35F
$$

COZ006>008-011-031700-
...WEST CENTRAL VALLEYS...

CITY           SKY/WX    TMP DP  RH WIND       PRES   REMARKS
GRAND JUNCTION SUNNY     83  49  30 SE17      30.08F
MONTROSE       SUNNY     82  50  32 SE15      30.18F
EAGLE          MOSUNNY   75  45  33 CALM      30.25F
RIFLE          SUNNY     79  47  32 VRB3      30.15S
DELTA          SUNNY     83  48  29 E5        30.15F
NUCLA          SUNNY     79  48  34 E7        30.23S
$$

COZ017>023-064>068-031700-
...SOUTHWEST COLORADO...

CITY           SKY/WX    TMP DP  RH WIND       PRES   REMARKS
DURANGO        MOSUNNY   73  51  46 VRB3      30.28F
CORTEZ         MOSUNNY   78  53  41 CALM      30.22S
PAGOSA SPRINGS MOSUNNY   69  47  45 CALM      30.36S
TELLURIDE      CLOUDY    57  50  77 E8G17     30.49F
WOLF CREEK PAS NOT AVBL
$$

COZ009-010-012-014-032>034-037-058>063-031700-
...CENTRAL COLORADO...

CITY           SKY/WX    TMP DP  RH WIND       PRES   REMARKS
ASPEN          MOSUNNY   72  45  37 SE5       30.30F
BUENA VISTA    MOSUNNY   63  50  64 CALM      30.36F
COPPER MTN     SUNNY     59  34  38 W17G23    30.64S
BERTHOUD PASS  FAIR      50  39  66 N9G16     30.67S
COTTONWOOD PAS NOT AVBL
GUNNISON       PTSUNNY   63  48  59 E3        30.40S
KREMMLING      SUNNY     70  43  37 CALM      30.32S
LEADVILLE      SUNNY     61  43  51 VRB3      30.46F
MONARCH PASS   PTSUNNY   46  43  87 SW16      30.74R THUNDER FOG
SALIDA         MOSUNNY   64  53  68 N3        30.39F
SUNLIGHT       SUNNY     64  46  52 CALM      30.57S
WILKERSON PASS MOSUNNY   55  45  67 CALM      30.60S
$$

COZ069>075-031700-
...SAN LUIS VALLEY/SANGRE DE CRISTO MOUNTAINS...

CITY           SKY/WX    TMP DP  RH WIND       PRES   REMARKS
ALAMOSA        PTSUNNY   63  53  70 VRB3      30.34S
LA VETA PASS   MOSUNNY   59  46  63 MISG      30.52S
SAGUACHE       CLOUDY    55  52  88 NW14G22   30.42R THUNDER
$$

COZ035-036-038>040-031700-
...NORTHERN COLORADO FRONT RANGE...

CITY           SKY/WX    TMP DP  RH WIND       PRES   REMARKS
DENVER INTL AP MOSUNNY   70  57  63 SE5       30.20F
DMNS CITY PARK   N/A     72  56  57 NE3       30.19F
AURORA         MOSUNNY   68  58  70 NW3       30.22F
FRONT RANGE AP MOSUNNY   73  57  56 SE8       30.21F
ERIE MUNI ARPT SUNNY     68  60  75 CALM      30.19F
BOULDER MUN AP SUNNY     68  59  73 NE5       30.20S
CENTENNIAL     MOSUNNY   67  58  72 NE5       30.22F
BROOMFIELD     NOT AVBL
FORT COLLINS   MOSUNNY   68  59  73 S5        30.20F
LONGMONT       SUNNY     73  59  61 E5        30.20F
$$

COZ041-046-047-076>085-087-088-031700-
...PIKES PEAK/PALMER DIVIDE AND SOUTHERN FOOTHILLS...

CITY           SKY/WX    TMP DP  RH WIND       PRES   REMARKS
COLO. SPRINGS  MOSUNNY   69  55  60 S9        30.26F
A. F. ACADEMY  SUNNY     69  55  61 VRB6      30.26F
ELLICOTT       SUNNY    N/A N/A N/A VRB3      30.24F
FALCON         SUNNY     67  54  61 S8        30.30F
FORT CARSON    NOT AVBL
LIMON          SUNNY     72  56  57 VRB6      30.21S
MONUMENT HILL  NOT AVBL
TRINIDAD       SUNNY     74  57  55 CALM      30.21F
$$

COZ042>045-048>051-090-091-031700-
...NORTHEAST COLORADO...

CITY           SKY/WX    TMP DP  RH WIND       PRES   REMARKS
GREELEY ARPT   SUNNY     70  61  73 CALM      30.19F
AKRON          MOSUNNY   67  59  75 CALM      30.17F
BURLINGTON     SUNNY     76  56  49 NE6       30.14F
WRAY           SUNNY     79  56  44 CALM      30.11F
STERLING       MOSUNNY   72  61  68 N5          N/A
HOLYOKE        SUNNY     79  55  44 E5        30.12S
FORT MORGAN    MOSUNNY   74  49  42 CALM      30.17F
$$

COZ086-089-092>099-031700-
...SOUTHEAST COLORADO...

CITY           SKY/WX    TMP DP  RH WIND       PRES   REMARKS
PUEBLO         MOSUNNY   77  56  48 S5        30.16F
LA JUNTA       SUNNY     77  58  51 E5        30.14F
LAMAR          PTSUNNY   76  62  62 CALM      30.10F
SPRINGFIELD      N/A     82  56  40 S8        30.13F
$$



USA.gov is the U.S. government's official web portal to all federal, state and local government web resources and services.